Regional Weather Roundup
Issued by NWS

Home | Current Version | Previous Version | Text Only | Print | Product List | Glossary On
Versions: 1 2 3 4 5 6 7 8 9 10 11 12 13 14 15 16 17 18 19 20 21 22 23 24 25 26 27 28 29 30 31 32 33 34 35 36 37 38 39 40 41 42 43 44 45 46 47 48 49 50
000
ASUS43 KDTX 292310
RWRMI
MICHIGAN HOURLY REGIONAL WEATHER ROUNDUP
NATIONAL WEATHER SERVICE DETROIT/PONTIAC MI
700 PM EDT FRI MAY 29 2015

NOTE: "FAIR" INDICATES FEW OR NO CLOUDS BELOW 12,000 FEET WITH NO
SIGNIFICANT WEATHER AND/OR OBSTRUCTION TO VISIBILITY.

MIZ047>049-052>055-059>063-066>070-074>076-081>083-300000-
SOUTHEAST LOWER MICHIGAN

CITY           SKY/WX    TMP DP  RH WIND       PRES   REMARKS
ADRIAN         MOSUNNY   82  63  52 S14G23    29.99F
ALMA           LGT RAIN  72  68  87 SW5       29.96F
ANN ARBOR      MOSUNNY   83  64  52 S10G20    29.98F
BAD AXE        PTSUNNY   78  63  58 SW13      29.97F
CARO           MOSUNNY   80  67  64 S9        29.96F
DETROIT CITY   MOSUNNY   80  66  62 S10       30.00F
DETROIT        MOSUNNY   79  66  64 SE12      30.00F
FLINT          MOSUNNY   82  63  52 S9        29.97F
GROSSE ILE     MOSUNNY   75  66  73 SE7       30.00S
HILLSDALE      MOSUNNY   83  62  48 S10       29.99F
HOWELL         MOSUNNY   81  60  49 S10G16    29.98F

CITY           SKY/WX    TMP DP  RH WIND       PRES   REMARKS
JACKSON        MOSUNNY   81  62  52 S8        29.97F
LAMBERTVILLE   MOSUNNY   82  64  54 S8G17     30.00F
LANSING        RAIN      70  67  90 W15       29.97S FOG
LAPEER         FAIR      77  65  64 S8        29.99F
MASON          PTSUNNY   79  61  54 S7        29.96F
MONROE         MOSUNNY   75  66  73 E10       29.99F
MT. CLEMENS    PTSUNNY   74  68  80 SE8       29.99F
PONTIAC        PTSUNNY   80  67  64 VRB7      29.99F
PORT HOPE        N/A     80  64  58 S9G18     29.95F
PORT HURON     MOSUNNY   77  68  73 S9        30.01F
TRI CITIES     PTSUNNY   82  64  54 S10       29.94F
MIDLAND        RAIN      74  65  72 W9G23     29.94R
TROY           PTSUNNY   81  69  66 SE6       30.01F
SAGINAW HB     PTSUNNY   81  63  54 S12       29.94F
$$
MIZ043>046-050>051-056>058-064>065-071>073-077>080-300000-
SOUTHWEST LOWER MICHIGAN

CITY           SKY/WX    TMP DP  RH WIND       PRES   REMARKS
BATTLE CREEK   PTSUNNY   74  68  81 NE3       29.97S
BENTON HARBOR  PTSUNNY   80  66  62 S10       29.91F
BIG RAPIDS     CLOUDY    69  65  86 S5        29.94F
COLDWATER      MOSUNNY   82  59  45 S9G22     29.97S
FREMONT        PTSUNNY   74  66  76 SE5       29.93F
HOLLAND        PTSUNNY   75  69  81 SE7       29.93F
GRAND RAPIDS   PTSUNNY   74  70  87 SE6       29.95F
IONIA          FAIR      73  69  87 S3        29.95F
KALAMAZOO      MOSUNNY   76  70  82 CALM      29.95F
LUDINGTON      CLOUDY    76  64  67 S8        29.90F
MARSHALL       CLOUDY    82  62  51 S13G20    29.96F
MOUNT PLEASANT CLOUDY    71  67  88 W6        29.95F
MUSKEGON       PTSUNNY   76  66  71 SE8       29.91F
SOUTH HAVEN    PTSUNNY   80  67  65 S5        29.92F
$$
MIZ016>042-300000-
NORTHERN LOWER MICHIGAN

CITY           SKY/WX    TMP DP  RH WIND       PRES   REMARKS
ALPENA         PTSUNNY   67  63  87 SE9       29.94F
BEAVER ISLAND  CLOUDY    65  60  82 W9G18     29.90S
BELLAIRE       CLOUDY    76  65  69 S7        29.89F
CADILLAC       CLOUDY    74  63  68 S12G21    29.94F
CHARLEVOIX     CLOUDY    74  67  77 CALM      29.92F
FRANKFORT      CLOUDY    73  60  64 SW8       29.90F
GAYLORD        LGT RAIN  71  68  90 S6        29.93F
GRAYLING       CLOUDY    72  66  83 E6        29.94F
HARBOR SPRINGS CLOUDY    74  66  76 CALM      29.90F
HOUGHTON LAKE  LGT RAIN  69  64  84 SW7G26    29.97R
MANISTEE       CLOUDY    77  63  61 S10G18    29.91F
OSCODA         PTSUNNY   77  64  65 SE8       29.93F
PELLSTON       CLOUDY    75  66  73 S6        29.90F
ROGERS CITY    PTSUNNY   72  65  79 SE5       29.93S
TRAVERSE CITY  CLOUDY    80  65  59 VRB6      29.88F
$$
MIZ007>008-015-300000-
EASTERN UPPER MICHIGAN

CITY           SKY/WX    TMP DP  RH WIND       PRES   REMARKS
KINROSS        CLOUDY    70  63  78 S8        29.89F
MACKINAC ISLAN PTSUNNY   69  62  79 S7        29.89F
NEWBERRY       CLOUDY    65  60  83 S8        29.87F
S. S. MARIE    CLOUDY    65  58  78 SE6       29.88F
MUNISING         N/A     62  59  90 NW9       29.87R
$$
MIZ004>006-011>014-085-300000-
CENTRAL UPPER MICHIGAN

CITY           SKY/WX    TMP DP  RH WIND       PRES   REMARKS
MANISTIQUE     FOG       52  50  94 S6        29.87F VSB 1/2
ESCANABA       PTSUNNY   66  57  72 S10G17    29.83F
MENOMINEE      PTSUNNY   73  63  68 SW15      29.83F
SAWYER-GWINN   CLOUDY    66  63  88 N8        29.86S
$$
MIZ001>003-009>011-084-300000-
WESTERN UPPER MICHIGAN

CITY           SKY/WX    TMP DP  RH WIND       PRES   REMARKS
IRON MOUNTAIN  CLOUDY    72  59  63 NW9       29.84F
HOUGHTON       CLOUDY    52  50  93 NW12      29.90R FOG
COPPER HARBOR    N/A     53  50  89 N12G21    29.89R
IRONWOOD       CLOUDY    57  55  94 NW8       29.93R
$$

ABBREVIATIONS USED IN REMARKS
   TC - TEMPERATURE IN CELSIUS
  WCI - WIND CHILL INDEX
   HX - HEAT INDEX
  VSB - VISIBILITY



USA.gov is the U.S. government's official web portal to all federal, state and local government web resources and services.